Satellite-Ground Cal/Val Site Overpasses Predictions

Prediction of Satellite NPP Overpassing Cal/Val Site: Antarctic Dome C

Ground Cal/Val Site Location: Latitude: -75.10, Longitude: 123.35; Satellite-Ground Site NADIR distance within 100 km.

Table of predicted overpasses for the next 14.0 days since TLE Epoch: 5/6/2016
Interval Starting Time Ending Time Minimum Distance Time Minimum Distance (km)
1 05/07/2016 15:02:15 05/07/2016 15:02:39 05/07/2016 15:02:27 56.93
2 05/08/2016 14:43:24 05/08/2016 14:43:49 05/08/2016 14:43:37 52.14
3 05/09/2016 07:45:06 05/09/2016 07:45:26 05/09/2016 07:45:16 71.84
4 05/10/2016 07:26:14 05/10/2016 07:26:41 05/10/2016 07:26:27 36.06
5 05/12/2016 15:08:40 05/12/2016 15:08:49 05/12/2016 15:08:44 94.89
6 05/13/2016 14:49:40 05/13/2016 14:50:08 05/13/2016 14:49:54 16.31
7 05/15/2016 07:32:29 05/15/2016 07:32:58 05/15/2016 07:32:43 3.17
8 05/18/2016 14:55:57 05/18/2016 14:56:25 05/18/2016 14:56:11 20.23
9 05/19/2016 14:37:14 05/19/2016 14:37:28 05/19/2016 14:37:21 86.72


NCC Satellite Cal/Val Overpasses Prediction Service
